This is the latest recevied weather packets stored in our database for station/object N2UGS-WX. If no packets are shown the sender has not sent any weather packets the latest 10 day(s).
| Time | Temp. | Humidity | Pressure | Rain* | Wind** | Luminosity | Snow |
|---|---|---|---|---|---|---|---|
| 1777843805 | 11.67° C | 58% | 1009.8 hPa | 0 mm | - | - | - |
| 1777842903 | 11.67° C | 57% | 1009.8 hPa | 0 mm | - | - | - |
| 1777842002 | 11.11° C | 60% | 1010.2 hPa | 0 mm | - | - | - |
| 1777841342 | 11.11° C | 60% | 1010.2 hPa | 0 mm | - | - | - |
| 1777840502 | 11.67° C | 57% | 1010.2 hPa | 0 mm | - | - | - |
| 1777839842 | 11.11° C | 56% | 1010.2 hPa | 0 mm | - | - | - |
| 1777838942 | 12.22° C | 55% | 1010.5 hPa | 0 mm | - | - | - |
| 1777838042 | 12.22° C | 53% | 1010.5 hPa | 0 mm | - | - | - |
| 1777837143 | 13.33° C | 50% | 1010.8 hPa | 0 mm | - | - | - |
| 1777836242 | 12.22° C | 50% | 1011.2 hPa | 0 mm | - | - | - |
| 1777835342 | 12.22° C | 49% | 1011.5 hPa | 0 mm | - | - | - |
| 1777834503 | 12.22° C | 48% | 1011.5 hPa | 0 mm | - | - | - |
| 1777833603 | 13.33° C | 47% | 1011.5 hPa | 0 mm | - | - | - |
| 1777832702 | 12.78° C | 42% | 1011.9 hPa | 0 mm | - | - | - |
| 1777831742 | 12.22° C | 39% | 1012.2 hPa | 0 mm | - | - | - |
| 1777830901 | 12.78° C | 39% | 1012.2 hPa | 0 mm | - | - | - |
| 1777830001 | 11.11° C | 48% | 1012.9 hPa | 0 mm | - | - | - |
| 1777829102 | 10.56° C | 57% | 1012.9 hPa | 0 mm | - | - | - |
| 1777828442 | 10.56° C | 57% | 1013.2 hPa | 0 mm | - | - | - |
| 1777827602 | 11.11° C | 63% | 1013.2 hPa | 0 mm | - | - | - |
| 1777826702 | 11.67° C | 58% | 1013.5 hPa | 0 mm | - | - | - |
| 1777825803 | 10° C | 62% | 1013.5 hPa | 0 mm | - | - | - |
| 1777824903 | 10.56° C | 60% | 1013.5 hPa | 0 mm | - | - | - |
| 1777824003 | 10.56° C | 58% | 1013.9 hPa | 0 mm | - | - | - |
| 1777823102 | 10.56° C | 57% | 1013.9 hPa | 0 mm | - | - | - |
* Rain latest hour (hover to see other rain measurements)
** Current wind speed in m/s (hover to see current wind gust speed)